Temp
31 31 31 30 30 30 30 30 29 29 28 28 28 27 27 27 27 26 26 25 25 25 25 25 25 24 24 24 24 24 24 24 24 24 24 24 25 25 25 25 25 25 26 26 26 26 25 25 25 25 25 25 24 24 24 24 24 24 24 24 24 24 24
32 31 31 30 30 30 30 30 29 29 29 28 28 28 27 27 27 26 26 26 25 25 25 25 25 24 24 24 24 24 24 24 24 24 24 24 24 25 25 25 25 26 26 26 26 26 26 25 26 25 25 25 25 25 25 25 25 24 24 24 24 24 24
32 31 31 31 30 30 30 29 29 29 29 29 29 28 28 27 27 26 26 26 25 25 25 25 25 24 24 24 24 24 24 24 24 24 24 24 24 25 25 25 25 26 26 26 26 26 26 26 26 26 26 25 25 25 25 25 25 25 24 24 24 24 24
32 32 31 31 30 30 30 29 29 29 29 29 29 29 28 28 27 27 26 26 26 25 25 25 25 25 24 24 24 24 24 24 24 24 24 24 25 25 25 25 25 26 26 26 26 26 26 26 26 26 26 25 25 25 25 25 25 25 24 24 24 24 24
32 32 31 31 30 30 30 29 29 29 29 29 29 29 28 28 27 27 26 26 26 25 25 25 25 25 25 24 24 24 24 24 24 24 24 24 24 25 25 25 25 25 26 26 26 26 26 26 26 26 26 26 25 25 25 25 25 25 25 24 24 24 24
32 32 31 31 30 30 30 30 30 30 30 30 29 29 29 28 27 27 27 26 26 26 26 25 25 25 25 25 24 24 24 24 24 24 24 24 24 24 25 25 25 25 26 26 26 26 26 26 26 26 26 26 25 25 25 25 25 25 25 24 24 24 24
32 32 31 31 31 30 30 30 30 30 30 30 29 29 29 28 28 27 27 26 26 26 26 25 25 25 25 25 24 24 24 24 24 24 24 24 24 24 24 25 25 25 25 25 26 26 25 26 26 26 26 26 25 25 25 25 25 25 25 24 24 24 24
32 32 32 31 31 31 30 30 30 30 30 30 29 29 29 29 28 28 27 27 26 26 26 25 25 25 25 25 24 24 24 24 24 24 24 24 24 24 24 24 25 25 25 25 25 26 26 26 26 26 26 26 25 25 25 25 25 25 25 24 24 24 24
33 32 32 32 31 31 30 30 30 30 30 29 29 29 29 29 28 28 28 27 27 26 26 26 25 25 25 25 25 24 24 24 24 24 24 24 24 24 24 24 24 24 25 25 25 25 26 26 26 26 26 25 25 25 25 25 25 25 25 25 25 24 24
33 32 32 32 32 31 31 30 30 29 29 29 29 29 29 29 29 28 28 27 27 26 26 26 26 25 25 25 25 25 24 24 24 24 24 24 24 24 24 24 24 24 25 25 25 25 25 26 26 26 26 25 25 25 25 25 25 25 25 25 25 25 25
33 32 32 32 32 31 31 30 30 29 29 29 29 29 29 29 29 29 28 28 27 27 26 26 26 26 25 25 25 25 24 24 24 24 24 24 24 24 24 24 24 24 25 25 25 25 25 25 25 25 25 25 26 26 25 25 25 25 25 25 25 25 25
33 32 32 32 32 31 31 30 29 29 29 28 29 29 29 29 29 29 29 28 28 27 27 26 26 26 25 25 25 25 24 24 24 24 24 24 24 24 24 24 24 24 25 25 25 25 25 25 25 25 25 25 26 26 26 25 25 25 25 25 25 24 25
33 32 32 32 32 31 31 30 29 29 29 28 29 29 29 29 29 29 29 29 28 28 27 27 26 26 26 25 25 25 25 24 24 24 24 24 24 24 24 24 24 24 25 25 25 25 25 25 25 25 25 25 26 26 26 25 25 25 25 25 25 24 24
33 32 32 32 32 31 31 30 29 29 29 29 29 29 29 29 30 30 29 29 29 28 28 27 27 26 26 26 25 25 25 25 25 25 24 24 24 24 24 24 24 25 25 25 25 25 25 25 25 25 25 25 26 26 26 25 25 25 25 25 25 25 24
33 32 32 32 32 31 31 30 29 29 29 29 29 29 29 29 30 30 30 29 29 29 28 28 27 27 26 26 26 25 25 25 25 25 25 25 24 24 24 24 25 25 25 25 25 25 25 25 25 25 25 25 25 26 25 25 25 25 25 25 25 25 25
33 33 33 32 32 31 31 30 30 29 29 29 29 29 29 29 30 30 30 30 29 29 29 28 27 27 27 26 26 26 26 25 25 25 25 25 25 25 24 24 25 25 25 25 25 25 25 25 25 25 25 25 25 25 25 25 25 25 25 25 25 25 25
33 33 33 32 32 32 31 30 30 29 29 29 29 29 30 30 30 30 30 30 30 29 29 28 28 27 27 27 26 26 26 26 25 25 25 25 25 25 25 25 25 25 25 25 25 25 25 25 25 25 25 25 25 25 25 25 25 26 26 26 25 25 25
34 33 33 33 32 32 31 31 30 29 29 29 29 29 30 30 30 30 30 31 30 30 30 29 28 28 27 27 27 27 26 26 26 26 25 25 25 25 25 25 25 25 25 25 25 25 25 25 25 25 26 26 25 25 25 25 26 26 26 26 26 26 25
33 33 33 33 32 32 32 31 30 30 29 30 30 30 30 30 30 30 31 31 31 31 30 29 29 28 28 27 27 27 27 26 26 26 26 25 25 25 25 25 25 25 25 25 25 25 25 25 25 26 26 26 26 26 25 25 26 26 26 26 26 26 25
30 31 31 31 31 31 31 31 30 29 29 30 30 30 31 31 31 31 31 31 31 31 31 30 29 29 28 28 28 27 27 27 26 26 26 26 26 25 25 25 25 25 25 25 25 25 26 26 26 26 26 26 26 26 26 26 26 26 26 26 26 26 26
28 29 29 29 30 30 30 31 30 29 29 31 31 31 31 31 31 31 31 31 31 31 31 31 30 30 29 28 28 28 27 27 27 26 26 26 26 26 25 25 25 25 25 25 25 26 26 26 26 26 26 26 26 26 26 26 26 26 26 26 26 26 26
28 28 27 27 28 28 28 29 29 29 29 30 31 31 31 32 32 31 31 32 32 31 31 31 31 30 29 29 28 28 28 27 27 27 26 26 26 26 26 25 25 25 25 26 26 26 26 26 26 26 26 26 26 26 26 26 26 26 26 26 26 26 26
27 27 27 27 27 27 27 27 27 27 27 28 29 29 30 31 32 32 32 32 31 31 31 31 31 30 30 29 29 28 28 28 27 27 27 26 26 26 26 26 26 26 26 26 26 26 26 26 26 26 26 26 26 26 26 26 26 26 26 26 26 26 26
27 27 27 27 26 26 26 27 27 27 27 27 27 27 29 30 31 31 31 31 31 31 31 30 30 31 30 30 29 29 29 28 28 28 27 27 26 26 26 26 26 26 26 26 26 26 26 26 26 26 26 26 26 26 26 26 26 26 26 26 26 26 26
26 26 26 26 26 26 26 26 26 26 27 26 26 27 28 29 29 30 30 30 31 31 30 30 30 31 31 30 30 30 29 29 28 28 28 27 27 27 27 26 26 26 26 26 26 26 26 27 27 27 27 27 27 27 26 26 26 26 26 26 26 26 26
25 26 26 26 26 26 26 26 26 25 25 25 26 27 27 28 28 29 28 29 29 30 30 31 31 31 31 31 31 30 30 29 29 28 28 28 27 27 27 27 27 27 26 26 26 26 27 27 27 27 27 27 27 27 27 27 27 26 27 27 27 27 27
24 25 25 25 25 25 26 25 25 25 25 26 26 26 27 27 27 27 27 28 28 29 30 30 31 31 31 31 31 30 30 30 29 29 29 28 28 28 27 27 27 27 27 27 26 26 27 27 27 27 27 27 27 27 27 27 27 27 27 27 27 27 27
23 24 24 24 25 25 25 24 25 25 25 26 26 26 26 26 26 26 26 27 27 28 29 30 31 31 31 31 31 31 30 30 29 29 29 28 28 28 28 27 27 27 27 27 27 27 27 27 27 27 27 27 27 27 27 27 27 27 27 27 27 27 27
22 22 23 24 24 24 24 24 24 24 25 26 26 26 26 26 25 25 26 26 27 28 29 29 31 31 32 31 31 31 31 30 30 29 29 28 28 28 28 28 27 27 27 27 27 27 26 26 27 27 27 27 27 27 27 27 27 28 28 28 28 27 27
22 22 22 23 23 24 24 23 23 24 25 26 26 26 26 25 25 25 26 26 27 28 28 29 30 31 32 31 31 31 31 30 30 29 29 28 28 28 28 27 27 27 27 27 27 26 26 26 26 26 26 26 26 27 27 27 27 28 28 28 28 28 28
21 21 22 22 22 23 24 23 23 24 25 25 25 25 26 25 25 25 26 27 27 27 28 28 29 30 31 31 30 30 30 30 29 29 29 28 28 28 27 27 27 27 27 27 26 26 26 26 26 26 26 26 26 26 27 27 27 27 28 28 28 28 28
21 21 21 21 22 23 24 24 24 24 24 25 25 25 25 25 25 25 26 27 27 27 27 28 28 29 30 30 30 29 29 29 29 28 28 28 28 28 28 27 27 27 26 26 26 26 26 26 26 26 26 26 26 26 27 27 27 27 27 27 27 27 27
20 20 20 21 21 22 23 24 23 23 23 24 24 25 25 25 26 26 26 26 27 27 27 28 28 28 28 29 29 29 29 29 28 28 28 28 28 28 27 27 27 27 26 26 26 26 26 26 26 26 26 25 26 26 27 27 26 26 26 26 26 26 27
20 20 20 21 22 22 23 24 23 23 23 23 23 24 24 25 25 25 25 26 26 27 27 28 28 28 28 28 29 29 29 29 28 28 27 27 27 26 26 27 27 27 27 27 26 26 26 26 26 26 26 26 26 26 26 26 25 25 25 25 26 26 26
20 20 20 21 22 22 22 23 24 24 23 23 23 24 24 24 25 25 25 26 26 27 27 27 27 28 28 28 28 28 28 28 28 28 27 26 25 25 24 25 26 26 26 26 26 26 26 26 26 26 26 26 26 26 25 25 25 25 25 25 25 25 25
19 19 20 21 21 22 22 23 24 24 23 22 24 24 23 24 24 24 25 25 26 26 27 27 27 27 28 28 28 28 28 28 28 28 27 25 24 23 22 23 24 25 25 25 26 26 26 26 26 26 26 26 26 25 25 25 25 24 24 24 24 24 24
19 19 20 21 21 21 22 22 23 23 23 22 23 24 23 23 24 24 25 25 25 26 26 26 26 26 26 27 27 27 28 28 27 27 26 24 24 24 23 22 22 23 23 24 24 25 25 25 25 25 25 25 25 25 25 24 24 24 24 24 24 24 24
19 19 20 21 21 21 22 22 22 23 23 23 23 23 23 24 24 24 25 25 25 25 25 25 25 25 25 26 26 27 27 28 27 26 25 23 23 23 23 22 20 20 21 22 23 24 24 24 24 24 24 24 25 25 24 23 23 23 23 23 23 23 23
Height
698 700 702 705 708 712 713 715 718 722 726 729 733 737 742 746 749 753 757 761 764 767 770 773 776 780 783 786 789 792 794 797 799 801 803 805 807 809 810 812 814 816 818 819 821 822 825 827 829 830 831 833 834 835 836 837 838 840 841 842 843 843 844
695 697 698 701 705 708 709 710 714 718 722 725 728 733 737 741 745 748 752 756 760 763 767 769 772 776 779 782 786 789 791 794 796 799 801 803 805 807 809 810 812 814 815 817 819 821 823 825 827 828 829 831 832 833 835 836 837 838 839 840 841 842 842
691 693 694 697 700 702 705 707 710 713 718 721 725 729 732 735 739 742 746 751 756 761 765 768 770 773 776 780 783 786 789 791 793 796 798 800 803 805 807 809 810 812 814 815 817 819 821 823 825 826 827 828 830 831 833 834 835 836 837 838 839 840 840
686 687 689 691 693 696 700 703 706 709 713 717 720 723 726 730 734 738 742 747 752 757 761 764 768 771 774 777 781 783 786 788 791 793 795 798 800 803 805 807 808 810 812 813 815 816 818 820 822 824 825 826 828 829 830 832 833 834 835 836 837 837 838
681 682 686 690 692 695 697 699 702 705 708 712 715 718 721 727 732 737 741 744 748 752 756 760 764 767 771 774 777 780 782 786 788 791 793 795 798 801 803 804 805 807 809 810 812 814 816 818 819 821 823 824 825 827 828 829 830 832 833 834 835 835 836
677 679 683 686 689 692 693 695 698 701 704 707 710 715 720 726 731 734 738 742 745 749 753 758 761 764 767 770 773 777 779 783 786 788 791 793 796 798 799 800 802 804 805 808 810 811 813 815 817 819 820 821 823 824 825 827 828 829 830 831 832 833 833
674 676 679 681 684 687 689 692 695 698 701 703 707 714 718 723 727 730 735 739 742 746 750 754 758 761 764 767 770 773 776 780 783 785 788 791 794 795 796 798 799 801 803 805 807 809 811 812 814 816 817 819 820 821 823 824 825 826 827 828 829 830 831
667 671 674 676 679 682 685 689 692 696 700 704 708 712 715 719 723 727 731 734 738 743 746 750 753 757 760 764 767 770 772 776 779 782 785 788 791 793 794 796 797 799 801 803 805 806 808 809 811 813 815 816 817 818 820 820 821 823 824 825 826 827 828
661 665 668 670 673 678 681 684 688 693 697 702 705 708 712 716 719 723 726 730 735 739 742 745 749 752 756 760 763 766 769 772 775 778 781 784 787 790 792 794 795 797 799 800 802 803 805 806 808 810 811 813 814 815 816 817 818 820 821 821 822 823 824
659 662 664 666 670 674 678 682 686 691 694 698 702 705 709 712 715 719 723 727 731 734 738 742 746 749 753 757 760 763 766 768 771 774 777 780 784 786 789 791 793 795 796 797 799 800 802 803 805 807 809 810 811 812 812 813 815 816 817 818 819 820 821
655 659 662 667 670 674 678 682 686 689 691 694 698 701 705 708 712 716 720 724 728 731 736 740 743 747 750 753 757 760 762 764 766 769 772 776 779 782 785 788 790 792 793 795 796 797 799 801 802 804 805 806 807 808 808 809 811 812 813 814 815 816 817
652 657 662 666 669 673 677 680 683 685 688 691 694 698 701 705 709 713 718 721 725 729 733 737 740 744 747 750 753 756 758 760 762 765 768 771 775 778 781 783 786 788 789 791 793 794 796 798 799 800 801 802 803 804 804 806 807 808 809 810 812 813 814
650 654 659 662 666 670 674 677 680 682 685 687 691 694 698 702 706 710 714 717 721 725 729 732 736 739 743 746 749 753 755 756 758 760 763 767 770 774 776 779 781 783 785 787 789 791 793 794 795 796 797 798 799 800 801 802 804 804 805 807 808 809 810
649 653 657 660 664 668 671 675 678 680 682 685 688 692 696 699 703 706 709 713 717 721 724 728 732 735 738 741 745 748 750 752 754 756 759 763 766 769 772 774 777 779 781 783 785 787 789 790 791 792 793 794 795 795 797 799 800 801 802 803 804 806 806
649 652 656 659 662 664 667 671 674 677 680 682 686 690 693 697 701 703 707 710 713 716 719 723 727 730 733 736 739 742 745 748 751 753 756 760 762 765 768 770 773 775 777 779 781 782 784 786 787 789 789 790 791 792 794 795 795 796 797 799 800 801 802
647 650 653 656 658 660 662 666 669 673 677 680 683 687 690 694 697 700 703 706 709 713 715 719 723 725 729 732 734 737 740 744 747 750 752 755 758 761 764 766 769 772 774 775 777 778 780 782 784 784 785 786 787 788 789 790 790 791 793 794 796 797 799
645 648 651 653 656 658 661 664 668 672 675 677 680 683 687 690 693 697 700 703 706 709 712 715 719 722 725 728 730 733 736 740 743 746 748 751 754 757 759 763 766 768 770 771 773 774 776 778 779 780 780 781 782 784 784 784 785 787 789 790 792 794 795
642 645 648 651 654 657 660 664 667 670 672 674 677 680 684 687 691 694 697 699 702 705 709 712 715 718 721 724 727 730 733 736 739 742 744 747 750 753 756 759 762 764 766 767 769 771 772 774 774 775 776 777 778 778 779 779 781 782 784 786 787 790 791
643 645 646 649 652 656 659 661 664 666 668 671 674 677 680 684 687 690 692 695 699 702 706 709 711 715 717 720 723 725 728 732 734 737 740 743 746 749 753 756 758 760 761 763 765 767 768 769 770 770 771 772 773 773 774 775 776 778 780 781 783 786 788
647 648 649 651 654 656 659 661 664 666 668 671 674 676 679 682 684 687 690 693 696 699 703 705 708 711 713 716 719 721 724 727 730 733 736 739 742 745 748 751 752 754 757 759 762 763 764 764 765 766 767 767 768 769 769 770 771 773 775 777 779 782 784
651 652 654 656 658 660 662 662 665 668 670 673 676 678 681 682 684 687 689 692 694 697 699 702 704 707 709 712 714 717 720 723 726 729 732 735 738 740 743 745 747 750 753 755 757 758 759 760 761 761 762 763 764 765 765 766 768 770 772 774 776 779 781
655 655 658 660 661 662 663 663 666 668 671 673 676 678 681 682 684 686 688 689 692 694 696 699 701 703 705 708 710 713 716 719 722 725 728 731 733 735 738 740 742 745 747 750 752 754 755 756 757 758 759 760 762 762 762 762 765 768 769 771 774 777 779
656 657 659 661 662 664 665 666 668 670 672 674 676 679 680 681 682 684 685 687 689 691 693 695 697 699 701 703 706 709 712 715 718 720 723 726 728 730 733 735 737 740 743 745 747 749 750 751 752 754 755 757 758 758 758 759 763 765 767 769 772 774 776
657 658 660 662 664 666 667 669 670 672 674 675 678 680 681 681 682 683 685 687 688 689 691 692 693 696 697 699 702 704 707 710 712 715 718 720 723 725 728 730 733 735 738 740 741 743 745 746 748 750 751 752 753 754 755 757 759 762 763 765 768 770 771
661 661 662 663 666 668 670 671 672 674 676 677 679 681 681 682 682 683 685 686 687 689 689 690 691 692 694 695 698 700 702 704 707 709 712 715 717 720 723 725 728 730 733 735 736 738 740 742 744 745 746 747 748 750 751 753 755 758 760 762 764 766 766
668 667 667 667 668 669 671 672 673 675 677 679 681 682 682 682 682 683 684 685 686 687 688 689 690 690 691 692 693 695 697 699 701 704 706 709 712 715 718 721 723 726 728 731 733 735 737 738 740 740 741 743 745 746 748 749 751 754 756 757 760 761 762
672 671 670 671 671 671 672 673 675 677 679 680 682 682 682 683 683 683 684 684 685 686 686 686 687 687 688 689 690 691 693 695 697 699 702 705 708 711 714 716 719 722 724 727 729 731 733 734 736 737 738 739 741 743 744 746 748 750 752 753 755 756 757
676 674 673 673 673 673 674 676 677 679 680 681 682 682 683 683 683 684 684 684 685 685 685 685 684 684 685 686 687 688 690 692 694 696 699 702 704 707 710 713 716 718 720 723 725 727 729 730 732 733 735 736 738 740 741 743 745 746 748 749 750 751 752
681 679 678 677 677 677 677 678 679 680 682 683 684 684 684 684 684 684 685 685 685 685 684 683 683 682 682 682 683 685 687 689 691 693 696 699 701 704 707 710 713 715 717 720 722 724 726 727 729 731 732 733 735 737 739 741 742 743 744 745 746 747 748
682 682 681 680 681 681 680 681 682 683 684 684 685 686 686 685 685 685 685 685 685 684 683 682 681 680 680 680 681 682 684 686 689 691 694 696 699 702 704 707 710 712 714 717 719 721 723 724 726 728 729 731 732 734 736 738 739 740 740 741 742 743 744
683 682 680 679 680 680 681 682 683 685 686 686 686 687 687 687 687 686 686 686 685 684 683 682 680 679 678 678 679 681 683 685 687 689 692 694 697 700 702 705 707 710 712 714 716 718 720 722 724 725 726 728 730 731 733 735 736 737 737 737 738 739 740
686 685 684 682 681 681 681 682 684 685 686 687 688 689 688 688 688 688 687 686 685 684 683 682 681 679 678 678 678 680 682 684 686 688 691 693 695 697 700 702 705 707 710 712 714 716 718 720 721 723 724 726 727 728 730 732 733 734 734 734 735 736 737
689 687 687 686 685 685 684 684 686 687 688 689 689 689 689 689 689 688 688 687 685 684 683 682 681 680 679 678 678 679 680 682 685 687 690 692 695 697 699 701 703 705 708 710 712 714 716 718 719 720 722 723 724 726 728 729 730 730 731 732 733 734 735
692 691 690 689 688 688 687 687 688 689 690 691 691 690 690 690 689 689 688 687 685 685 683 682 682 681 679 678 678 678 680 681 683 686 689 692 695 697 699 701 703 704 706 708 710 711 713 715 717 718 719 720 722 723 725 726 727 728 729 730 731 732 733
697 696 695 693 692 691 690 690 690 691 692 693 692 692 691 690 690 689 688 687 686 684 683 683 682 681 680 679 678 679 679 681 683 685 688 691 694 697 699 701 702 704 705 706 708 709 711 712 713 715 716 718 719 721 722 724 725 726 728 729 729 730 731
701 700 698 696 695 694 693 692 692 692 693 694 694 693 693 692 691 690 689 687 686 685 684 683 682 682 681 680 680 679 680 681 683 685 687 690 692 695 699 701 703 704 705 706 707 708 709 711 712 713 714 716 717 719 720 722 723 725 726 727 728 729 729
701 700 698 697 697 696 696 695 693 693 695 696 695 695 695 694 693 691 690 688 687 686 685 684 683 682 682 681 681 681 680 681 683 685 687 690 692 694 698 700 703 705 706 706 707 708 709 710 711 713 714 715 716 718 720 721 723 724 726 726 727 728 728
701 700 699 698 698 698 699 697 696 695 696 697 697 697 696 695 694 693 692 690 689 688 686 685 684 683 683 683 682 682 682 682 683 685 687 690 692 694 696 699 702 706 708 708 708 709 709 710 712 713 714 716 717 718 719 721 723 724 725 726 727 727 728
Wind_Speed
18 18 18 16 17 18 19 19 20 23 28 31 33 37 38 39 40 40 40 42 44 44 45 45 44 44 44 45 44 43 41 40 39 37 36 35 35 36 37 36 36 36 36 35 35 34 33 32 31 30 28 28 28 27 26 25 25 24 23 22 22 21 22
18 18 18 17 17 19 20 20 22 25 28 31 34 36 37 38 39 40 40 42 43 44 44 44 44 44 45 45 44 42 42 41 40 38 36 34 33 34 36 36 36 37 37 36 35 34 32 31 31 30 29 29 29 29 28 27 26 26 26 25 24 23 24
18 18 18 19 18 19 20 19 22 26 29 31 33 34 37 39 42 43 42 42 42 41 41 42 42 42 43 42 41 41 41 41 40 39 38 36 34 34 35 35 36 36 36 36 35 34 33 31 31 31 31 30 30 30 29 28 28 27 28 28 27 26 26
19 19 19 20 20 19 19 19 21 26 30 33 35 38 40 42 42 43 43 43 42 41 41 42 42 41 41 40 40 40 40 40 40 39 39 38 36 35 34 34 35 35 35 36 36 35 33 32 32 32 32 31 31 31 31 30 29 29 28 29 30 29 29
22 21 19 18 18 17 17 18 20 26 31 34 38 40 40 40 39 39 40 41 42 43 43 44 43 42 41 41 40 40 40 40 39 39 39 38 37 35 34 35 36 36 36 36 36 35 34 33 33 33 33 33 32 32 31 31 31 30 29 29 30 30 30
20 20 19 18 17 17 18 19 22 28 33 35 38 38 36 36 37 37 39 40 41 43 43 42 42 41 40 41 41 39 39 39 39 38 38 38 37 36 37 38 38 38 38 37 36 35 34 34 34 34 33 33 33 33 32 32 32 32 31 31 31 31 32
18 18 18 18 17 17 18 18 21 29 33 35 35 34 34 35 37 38 38 39 41 41 40 41 42 41 41 40 40 39 38 38 39 39 38 37 37 37 38 38 38 39 38 37 36 35 34 33 34 34 33 33 34 34 33 33 33 33 33 33 33 33 33
20 19 18 19 18 17 18 17 19 25 29 29 29 31 33 35 36 36 38 39 40 40 40 42 42 42 41 40 39 40 39 39 39 39 39 37 36 37 37 36 37 37 37 37 37 37 36 35 35 34 34 34 35 35 35 35 34 34 35 35 35 35 34
20 20 19 20 19 17 17 17 19 23 26 27 28 31 33 34 34 36 38 39 38 39 40 42 43 43 42 40 40 41 40 40 40 39 39 37 37 37 37 36 36 36 35 37 38 38 38 38 37 36 35 35 36 36 36 36 36 36 36 37 37 36 36
19 20 20 19 18 16 15 15 17 18 20 22 26 29 32 33 34 35 35 36 37 38 40 41 41 41 41 40 40 40 40 39 39 39 38 37 37 37 37 37 36 35 36 36 36 37 38 38 38 37 37 37 37 37 38 38 38 38 38 38 38 38 38
19 19 18 17 16 15 15 15 15 15 15 20 25 28 31 33 33 32 33 34 35 36 38 39 38 38 39 40 40 39 40 40 39 39 39 39 38 38 38 38 37 37 37 37 36 36 37 37 37 37 38 39 39 39 40 40 40 39 39 40 40 40 40
18 17 17 18 18 16 16 15 16 15 15 19 25 27 30 31 32 31 32 33 35 35 36 37 38 38 38 38 38 38 39 40 40 39 40 40 39 39 39 39 38 38 39 39 38 37 37 37 37 38 39 40 41 41 41 41 41 41 41 41 40 40 40
17 16 16 18 17 16 16 15 16 17 17 20 25 28 29 31 31 31 32 33 35 36 36 37 38 38 38 38 38 37 38 39 40 40 40 40 41 41 41 40 40 40 40 40 40 39 38 37 38 39 40 41 42 42 42 42 41 42 42 41 41 40 40
19 18 17 17 17 17 17 16 16 17 16 19 24 27 28 30 31 32 33 34 35 36 36 37 38 38 38 38 38 37 38 39 40 40 40 40 40 41 41 41 41 41 41 40 40 40 40 40 40 41 41 42 43 43 42 41 41 42 42 41 41 41 41
20 19 19 19 19 18 18 17 16 16 16 18 22 24 26 28 30 32 32 33 35 36 37 38 38 38 38 38 38 39 40 39 39 39 39 39 39 41 41 41 41 41 40 40 40 41 41 41 41 41 41 43 43 43 42 41 42 43 43 42 42 42 42
20 19 19 19 19 18 17 17 17 17 17 16 19 23 25 26 29 31 31 32 34 35 37 37 37 37 37 37 39 40 40 39 38 38 38 39 40 40 41 41 40 40 40 40 40 41 41 41 41 41 42 43 43 43 42 42 43 44 45 44 44 43 42
19 19 18 17 16 15 14 15 15 16 16 16 19 24 26 27 29 30 30 31 33 35 36 36 36 36 36 37 39 39 38 38 37 37 38 39 40 40 40 41 40 39 40 40 40 41 41 41 41 42 43 43 43 43 43 44 44 45 46 46 46 45 43
18 18 18 17 16 14 14 14 14 16 16 17 21 25 27 28 29 29 30 31 32 33 35 35 35 36 36 37 38 37 37 37 37 37 38 38 39 39 39 39 39 39 39 40 41 40 40 41 42 43 43 43 43 43 43 45 46 46 47 47 48 48 45
12 12 13 14 14 13 13 12 12 14 16 18 23 27 29 31 30 30 32 33 33 33 33 33 34 35 36 37 37 37 37 38 38 38 39 39 39 39 38 37 38 39 40 40 41 40 40 41 42 44 44 43 43 43 44 45 46 47 48 49 49 49 48
9 9 8 8 8 7 7 7 7 9 12 17 22 26 29 30 31 32 33 33 32 32 32 32 32 33 35 36 36 37 38 38 38 38 39 39 39 38 38 38 39 40 40 39 39 39 40 41 42 43 44 44 44 44 44 45 46 47 48 49 49 48 48
12 13 12 10 10 9 7 7 7 7 8 11 16 18 21 24 26 27 28 29 30 30 31 32 31 32 33 35 36 37 37 38 38 38 38 39 39 38 39 40 40 40 40 39 38 39 40 41 41 42 43 43 43 43 43 44 45 45 45 47 47 47 47
13 14 13 10 10 9 8 9 11 11 12 11 10 10 13 18 22 23 25 27 29 29 30 31 31 31 32 34 36 37 37 38 37 37 38 38 38 38 38 39 40 40 40 39 38 39 39 40 40 40 41 41 41 41 42 43 41 41 42 43 44 44 44
13 14 13 12 13 13 14 16 17 17 19 20 18 13 8 8 15 21 24 26 28 29 30 30 30 31 31 33 36 37 38 39 38 37 38 38 37 37 38 39 40 40 40 39 38 38 39 39 40 39 39 39 39 40 41 41 38 37 38 39 40 41 42
14 14 13 12 14 16 18 20 21 21 22 23 22 20 17 12 8 10 13 16 21 24 26 27 29 31 31 32 35 37 39 40 40 39 38 38 38 38 38 39 39 40 40 39 39 39 39 39 39 39 39 39 39 40 40 38 37 35 35 36 36 37 40
13 13 14 15 16 16 17 20 22 23 24 23 21 19 18 15 13 10 7 3 6 14 20 23 27 30 32 33 34 37 39 41 41 41 40 39 39 39 39 39 39 40 40 40 40 39 38 38 38 38 39 39 40 40 39 38 36 35 34 34 33 35 38
12 12 13 17 18 18 20 23 23 21 21 20 19 19 19 16 14 13 11 8 4 2 9 15 21 27 32 34 34 36 38 40 41 42 41 40 40 39 39 39 38 38 38 38 38 37 36 36 37 37 37 38 38 38 38 37 35 34 33 33 33 34 35
13 14 15 18 20 21 20 21 22 20 20 21 21 20 19 17 15 14 12 9 7 6 4 6 10 17 25 30 32 34 36 38 40 41 41 41 41 39 38 38 37 36 37 36 35 35 35 35 35 35 35 35 35 35 35 34 33 33 33 33 34 34 34
13 15 16 19 22 22 20 18 18 19 20 22 22 21 20 18 15 13 11 9 8 9 7 6 8 10 16 25 29 31 34 36 37 38 39 39 38 38 36 36 36 35 35 35 34 33 33 34 33 33 32 32 32 31 31 31 31 31 32 33 34 34 34
10 11 12 15 18 20 20 17 16 17 19 20 20 20 20 19 16 14 12 11 11 11 9 8 8 9 12 20 27 29 31 33 35 35 35 35 36 36 35 34 34 34 33 33 32 31 31 31 31 30 28 28 28 28 27 27 28 29 30 31 32 33 34
10 10 10 12 14 17 19 16 14 17 19 19 19 19 20 19 17 15 14 13 13 13 12 11 9 8 10 16 24 27 29 31 32 33 33 33 33 33 33 32 32 31 32 32 31 29 28 27 27 27 25 24 24 24 24 23 23 25 27 29 30 31 32
11 12 13 16 17 18 18 17 16 16 16 18 18 17 18 19 17 15 14 14 15 14 13 13 12 9 9 14 20 24 25 27 29 30 30 31 32 32 31 30 29 28 29 29 28 27 25 24 24 24 23 22 22 22 23 22 22 22 24 27 29 31 32
11 14 15 17 19 20 19 18 17 15 15 17 18 18 18 17 16 16 16 15 14 14 12 13 14 11 9 13 17 20 22 23 25 27 27 28 30 31 30 30 29 27 27 27 26 25 23 22 23 22 22 21 21 21 22 23 22 22 22 23 25 27 30
11 13 14 16 19 20 16 15 14 13 13 16 18 19 19 16 15 16 17 14 12 12 12 11 13 12 8 13 16 18 22 23 23 24 25 26 27 28 28 29 29 27 26 25 24 23 22 21 21 21 21 21 20 21 23 22 20 19 18 18 17 17 19
11 13 16 19 22 21 15 11 11 12 12 15 18 20 18 15 14 14 14 11 9 10 11 10 11 11 6 10 15 18 21 23 24 24 24 22 21 20 20 22 25 25 25 25 25 24 23 22 22 22 22 22 22 22 20 18 18 18 16 14 12 11 10
11 13 16 18 20 21 16 10 10 12 13 14 17 19 18 17 16 14 13 12 10 9 9 7 8 9 6 5 13 17 20 22 23 25 23 21 18 15 12 12 16 18 20 22 23 24 24 24 24 25 25 24 22 20 17 17 17 16 14 12 10 8 7
11 13 15 17 19 21 19 12 10 12 14 14 16 18 19 18 17 15 15 14 12 10 8 7 6 6 4 1 8 14 18 20 22 23 23 22 21 18 14 10 8 10 11 12 16 19 21 22 22 23 22 20 17 15 16 16 16 15 12 10 9 7 5
12 12 14 17 17 16 16 13 10 12 14 13 13 15 17 17 17 16 15 14 12 10 7 4 3 3 3 3 5 10 15 18 20 21 22 23 23 23 21 20 17 14 12 9 7 10 13 14 14 15 16 15 14 13 13 13 13 12 10 8 6 4 3
15 14 14 16 16 14 11 9 9 11 12 11 12 13 14 15 16 15 14 14 12 11 9 8 8 8 8 6 6 8 12 16 18 19 21 23 24 24 25 26 25 22 19 17 14 12 12 11 11 11 11 10 10 12 13 13 12 10 8 6 4 3 3
Wind_Direction
181 183 182 183 184 186 188 187 184 183 183 183 183 184 185 186 186 187 189 191 192 194 194 194 195 197 199 201 203 204 205 206 206 207 208 208 209 207 206 206 207 209 211 214 217 218 218 218 219 221 222 222 223 225 229 232 234 233 232 230 230 232 232
183 185 184 184 186 189 189 186 185 184 184 185 184 183 184 185 186 187 189 191 194 195 194 195 195 196 199 201 203 204 205 206 206 207 208 209 210 209 208 207 207 209 212 215 218 219 220 220 221 223 223 223 225 226 228 231 233 234 233 231 231 232 233
185 186 184 185 187 189 188 185 186 186 186 186 184 184 185 187 187 188 189 190 193 195 195 196 196 196 199 200 201 204 205 206 207 207 208 210 210 210 209 208 208 209 212 215 217 219 221 222 222 224 224 225 226 226 228 230 232 233 233 231 231 232 234
187 186 185 188 188 188 187 184 187 187 187 187 186 187 188 189 189 188 189 189 190 192 194 196 197 198 200 200 201 204 205 207 208 209 210 211 211 212 210 210 210 211 213 216 218 219 220 222 223 223 224 225 226 227 228 229 231 232 232 231 232 233 234
187 184 184 188 188 187 186 185 188 188 188 188 189 190 190 188 188 188 190 190 190 193 195 196 197 198 200 201 203 205 206 208 209 210 212 212 212 212 212 213 213 213 215 216 218 219 220 222 222 222 223 224 226 227 227 229 230 232 232 231 231 232 234
187 184 185 188 186 187 187 187 189 189 189 189 190 191 188 185 187 189 191 191 192 194 196 196 198 199 200 202 204 205 207 208 209 211 212 213 213 212 214 215 215 215 216 216 217 219 220 221 222 221 221 223 225 226 227 228 229 231 231 231 231 233 234
186 184 186 187 185 186 187 186 188 190 191 190 189 187 184 185 188 189 190 192 193 194 194 196 198 200 201 202 203 205 206 207 209 211 213 214 214 214 215 216 216 217 217 216 216 216 217 219 220 221 221 222 224 225 227 228 228 229 230 230 231 232 233
184 184 186 186 184 184 186 185 186 189 190 188 185 185 185 187 188 189 190 193 194 194 194 196 198 200 202 202 203 205 205 207 208 210 212 213 215 216 217 216 217 217 216 216 217 216 216 218 219 221 222 222 224 226 227 229 229 229 228 228 230 230 231
181 182 186 185 183 183 184 184 184 185 185 184 184 184 187 188 189 190 192 192 193 194 196 198 199 200 202 202 204 205 205 206 208 210 211 213 215 217 218 218 218 216 215 216 217 216 217 218 220 221 222 223 224 226 227 229 230 229 228 227 228 229 230
181 184 187 183 180 181 181 180 181 183 183 182 183 184 186 189 191 192 192 191 192 195 197 198 199 200 201 203 205 206 205 206 207 209 210 212 214 217 218 219 219 218 217 216 216 216 217 219 220 220 221 223 224 226 228 229 229 229 228 228 228 229 230
181 182 183 180 176 175 176 178 181 183 183 183 184 185 188 190 192 192 191 192 193 195 196 197 199 200 201 203 205 206 205 206 206 208 209 211 213 216 218 219 219 219 219 218 217 217 218 218 219 220 221 223 225 226 228 229 229 228 228 228 228 229 230
181 179 177 177 175 176 176 178 181 182 182 184 185 187 188 191 192 192 192 192 193 194 195 196 198 199 201 203 205 206 206 206 206 207 209 211 213 215 217 218 219 219 220 220 219 219 219 218 219 220 221 224 225 226 228 229 228 228 229 229 228 228 229
178 175 175 176 175 176 177 177 179 181 182 184 186 188 189 190 191 191 192 193 194 195 195 196 197 198 200 203 205 207 207 207 207 208 209 211 213 215 216 217 218 219 220 221 220 220 220 220 220 221 223 225 226 227 228 228 228 229 229 229 229 228 228
178 174 174 177 176 177 178 178 178 180 181 183 185 186 188 189 191 192 193 193 194 195 195 196 196 198 200 202 204 207 209 209 209 209 210 212 213 215 217 217 218 219 220 221 220 221 221 221 222 223 224 225 227 228 228 228 228 229 228 229 229 229 229
177 176 175 178 179 179 179 178 177 179 181 183 183 183 185 188 191 193 193 193 194 195 196 196 196 198 199 201 203 207 209 210 210 210 211 212 214 216 217 218 218 219 219 220 220 221 222 222 222 223 224 225 227 228 228 228 228 229 228 228 228 229 230
176 178 178 180 182 182 180 176 177 178 179 181 183 183 184 187 191 192 193 193 194 195 197 196 196 198 199 200 204 207 209 209 210 210 211 212 214 216 217 218 219 219 220 221 221 221 222 222 223 223 224 226 226 227 228 228 229 230 230 230 229 229 230
176 177 177 180 181 179 177 174 174 176 178 181 184 184 186 189 192 193 193 194 194 196 197 196 196 198 199 202 205 207 207 208 209 211 211 213 214 216 217 218 219 219 220 221 222 222 222 222 222 223 225 226 227 227 227 228 229 230 231 232 231 231 231
177 177 175 177 176 175 177 176 173 175 179 182 182 184 188 190 192 194 195 196 196 196 196 196 196 198 201 203 206 206 207 207 209 211 212 213 214 216 217 218 218 219 221 221 222 222 222 222 222 223 225 226 227 227 228 229 230 231 232 233 233 233 232
162 166 167 168 168 171 176 176 175 178 180 181 181 184 188 189 190 194 197 198 198 197 196 196 197 199 202 204 205 206 206 208 209 210 212 213 214 215 216 217 218 219 220 222 222 222 222 223 223 224 225 225 227 228 229 230 232 232 232 233 234 234 233
100 104 106 118 128 139 151 146 150 164 172 181 185 186 187 188 191 195 196 197 199 198 197 198 198 199 201 203 205 206 206 207 208 209 211 213 213 213 214 215 217 219 220 222 222 222 223 224 224 225 226 226 227 229 230 232 233 233 233 234 235 235 234
79 83 81 82 86 88 98 108 115 125 144 173 188 191 192 194 195 196 196 198 200 199 199 200 201 202 202 202 204 205 206 206 207 209 210 211 212 211 212 214 216 218 219 220 222 223 224 225 226 227 227 228 228 230 233 234 234 235 235 235 236 236 235
77 80 80 80 83 80 81 91 97 98 102 117 143 167 188 200 202 200 199 200 202 202 202 203 204 204 203 202 204 205 205 206 206 207 209 210 210 210 211 213 214 216 217 219 221 223 225 227 228 229 229 230 230 231 235 237 236 236 237 238 238 237 236
74 77 77 77 77 75 74 78 81 83 83 81 79 80 96 162 193 200 202 203 204 204 203 204 206 207 205 203 203 204 205 205 206 207 208 208 208 209 210 212 214 216 216 217 219 221 224 226 228 230 231 232 231 232 235 238 238 238 239 239 239 238 237
65 70 71 71 72 70 67 68 71 71 69 66 59 53 54 70 112 162 184 198 205 207 207 207 208 209 207 206 205 204 204 205 206 207 207 207 207 209 211 212 214 215 215 216 218 220 222 225 227 230 231 232 233 234 236 238 238 238 239 239 239 238 237
54 60 61 60 64 67 64 63 64 62 58 55 48 41 40 47 58 69 76 105 193 207 212 214 214 213 211 210 208 206 205 205 205 206 207 207 208 209 211 212 213 215 215 216 218 220 222 224 226 229 230 232 234 235 236 238 238 238 238 238 237 237 237
49 53 55 52 52 57 59 60 60 56 51 47 41 35 32 32 35 35 27 17 12 233 220 223 224 222 218 215 212 209 207 205 205 206 207 208 209 210 211 212 213 214 215 216 218 220 222 224 226 228 230 232 233 235 236 237 238 237 237 237 237 236 236
44 47 53 51 47 48 51 55 58 56 49 42 35 32 29 28 29 23 10 3 2 348 311 269 252 239 228 222 216 211 209 207 207 207 208 208 209 210 211 212 212 212 213 215 216 218 221 223 225 228 231 233 234 235 236 237 238 237 238 238 237 237 235
38 40 45 49 48 45 44 47 52 52 47 38 32 29 26 25 29 26 19 19 14 355 334 309 291 268 240 227 220 215 211 209 208 208 208 208 208 208 210 211 212 212 212 213 215 217 219 222 225 228 231 234 235 236 237 238 238 239 239 239 239 238 237
38 39 39 44 48 47 45 42 40 43 43 37 31 28 24 21 21 21 21 17 7 357 347 328 307 288 255 230 221 217 213 211 209 208 207 207 206 206 207 208 209 210 211 211 213 215 218 221 223 226 230 233 235 237 238 239 239 239 240 240 240 240 240
29 33 37 42 46 50 52 49 43 42 39 30 25 23 20 18 14 10 9 6 359 353 349 342 325 296 265 236 222 217 213 211 209 206 205 205 204 204 205 206 206 207 209 210 211 213 216 219 221 224 229 232 235 236 237 238 239 240 242 243 242 242 243
20 22 25 25 26 34 45 50 49 47 39 25 19 15 11 9 6 1 357 355 355 352 346 346 341 312 267 238 224 216 211 208 206 204 203 202 201 201 202 202 202 204 205 207 209 211 213 216 218 221 226 230 233 236 237 238 241 243 245 245 244 244 246
17 20 22 20 16 18 29 40 40 38 31 20 13 8 2 357 354 350 345 341 345 345 340 341 344 328 272 234 221 213 206 202 199 198 199 199 199 200 200 199 199 200 201 203 207 209 212 214 216 220 225 229 232 235 238 241 242 241 240 240 242 244 245
11 11 14 16 13 11 19 34 33 25 21 15 6 1 356 348 341 341 342 341 341 337 330 331 340 337 288 231 214 203 198 194 190 190 192 194 195 197 198 198 198 198 199 201 204 207 210 212 214 218 222 226 231 234 238 239 236 231 231 233 237 241 242
8 5 5 8 9 8 12 30 33 23 16 10 8 7 5 359 353 352 356 360 351 334 326 321 327 336 309 223 204 194 190 187 184 182 183 184 186 188 191 196 197 198 201 204 206 209 211 212 215 219 222 225 229 231 230 229 226 224 224 225 226 225 224
3 3 3 3 4 4 7 22 33 27 21 20 21 25 27 26 23 18 16 16 7 346 336 324 319 330 331 203 188 185 183 179 178 178 173 166 161 159 165 185 196 199 202 207 210 213 215 216 217 220 222 224 224 221 215 211 213 214 213 214 217 218 217
356 359 1 1 0 0 3 15 37 40 36 36 35 34 33 34 32 29 24 20 15 4 352 340 330 331 336 140 161 171 175 173 173 173 166 157 150 141 128 128 156 178 189 203 213 217 218 221 223 223 220 215 208 206 209 208 201 195 195 202 210 217 226
352 352 356 359 357 354 357 12 46 60 52 45 42 40 38 37 36 35 31 27 23 20 18 15 28 38 41 77 127 152 164 170 172 168 160 153 149 141 126 110 103 107 116 128 158 186 197 205 210 210 208 205 193 181 180 181 177 174 178 186 194 204 221
350 347 352 358 354 346 348 7 44 68 66 56 48 43 42 43 41 39 38 39 41 46 56 66 75 81 83 89 109 130 147 161 166 160 151 146 143 140 133 119 105 95 93 100 109 121 132 140 147 151 158 169 175 166 156 150 150 154 157 159 159 157 139